Theta_e
291 293 293 292 293 294 292 291 286 293 296 303 305 307 310 316 317 317 327 329 327 328 330 335 338 334 335 347 348 351 352 352 351 351 351 352 349 347 343 351 353 355 355 357
289 293 293 291 294 295 295 295 293 294 296 306 305 308 308 313 317 315 315 327 330 331 325 334 337 338 334 334 348 349 353 353 354 353 352 351 352 352 345 347 352 352 354 355
282 291 291 287 291 293 295 297 295 290 294 302 301 303 305 306 314 313 314 316 326 330 333 337 333 333 331 332 346 349 349 353 354 354 354 353 353 352 351 345 349 355 354 356
283 288 279 290 297 297 296 297 299 297 299 306 308 311 311 311 306 309 322 325 328 328 331 336 339 343 343 343 347 348 348 350 353 354 353 354 354 353 352 351 346 347 355 356
282 283 287 290 295 296 293 293 302 302 304 307 310 311 310 314 318 315 319 322 326 330 331 332 338 340 340 340 342 346 348 349 353 354 353 354 353 353 353 353 353 350 352 355
286 281 279 291 297 301 298 287 302 302 303 304 307 301 305 312 320 312 312 314 325 330 336 339 336 340 344 343 341 343 350 351 353 353 354 354 353 354 354 354 354 355 353 355
286 283 287 296 299 301 287 288 300 301 300 301 300 302 308 313 317 321 323 324 324 326 332 330 331 333 338 341 344 347 352 353 354 354 353 355 355 355 355 354 354 354 354 356
286 283 279 298 298 291 294 297 298 299 300 300 302 304 309 311 312 318 320 322 323 323 326 328 327 327 326 329 333 338 355 352 353 355 355 356 356 356 355 355 353 353 353 354
287 288 295 295 294 296 297 295 296 297 300 301 301 302 306 308 311 314 318 319 320 321 321 322 322 323 323 326 329 331 335 353 354 356 355 356 356 356 355 356 354 353 352 352
288 292 293 293 295 295 295 295 297 298 298 300 300 302 305 308 311 314 314 317 319 318 317 317 319 320 322 324 327 329 335 355 353 354 356 356 358 358 357 356 355 354 353 353
289 292 292 295 295 295 296 297 297 299 298 300 301 301 305 307 311 314 314 315 317 315 315 315 318 318 320 321 324 325 329 355 354 356 353 357 358 358 359 359 355 357 356 356
284 293 292 292 296 296 295 295 296 297 301 304 303 304 307 308 313 314 311 312 314 314 312 314 313 314 317 319 321 324 328 345 352 356 355 356 355 348 315 325 322 321 325 345
293 296 295 296 297 297 296 297 298 298 305 303 306 309 309 308 309 310 308 308 311 311 311 311 311 313 315 317 319 321 323 323 335 335 353 355 355 353 349 333 313 307 310 320
299 298 295 296 294 298 298 297 299 299 301 303 306 307 307 306 304 303 305 307 309 308 307 309 310 310 313 316 315 318 326 317 325 333 338 344 355 354 353 349 347 340 311 314
300 299 298 298 298 299 300 298 296 296 297 299 302 304 304 303 303 302 303 306 307 305 305 308 307 307 313 313 314 315 320 324 323 329 332 330 342 354 353 350 348 347 328 317
300 300 299 297 298 298 297 296 295 296 296 298 300 301 303 303 303 302 303 304 302 301 303 305 305 307 310 311 310 313 317 319 324 327 332 332 336 344 347 344 344 341 340 336
298 295 296 297 298 298 297 297 297 296 297 298 299 301 302 302 301 301 302 302 302 301 302 303 303 306 308 308 309 313 318 321 326 330 332 329 330 335 341 340 336 336 332 326
301 302 299 299 298 298 298 298 297 297 297 299 300 300 299 299 299 299 300 301 300 300 301 302 304 304 303 306 307 310 312 314 313 318 323 321 319 323 324 324 323 324 323 318
304 303 302 302 301 300 300 298 298 299 299 299 299 298 299 300 300 299 300 300 299 299 300 302 304 302 301 305 305 306 307 308 308 308 309 310 311 311 313 316 316 314 312 311
304 304 305 304 303 302 301 301 300 299 300 300 299 299 298 298 299 299 299 297 299 300 303 303 301 300 300 301 302 299 299 300 303 303 303 302 304 303 303 303 305 303 303 301
303 304 303 303 302 303 303 302 302 300 300 301 299 298 298 299 299 299 298 295 298 302 302 303 301 300 301 300 299 297 296 296 296 297 297 296 297 299 299 299 298 296 297 297
303 303 303 303 302 301 303 302 303 301 300 301 300 300 299 299 300 300 300 298 300 303 302 301 301 302 300 302 298 297 296 295 294 294 293 294 293 293 293 294 293 293 294 294
302 303 304 302 300 302 303 303 302 302 300 300 300 301 300 300 300 298 297 300 301 302 302 302 303 303 302 299 299 297 295 295 294 293 293 293 293 293 292 292 292 293 293 293
303 302 303 303 303 303 300 303 302 302 302 301 301 301 300 299 299 302 302 302 302 302 302 303 303 305 302 299 298 297 297 296 295 294 293 293 293 293 293 292 292 293 293 293
305 304 302 301 303 300 301 303 303 303 302 300 301 301 301 301 300 301 302 301 301 300 297 303 305 304 301 300 298 297 296 296 296 296 295 294 293 293 292 292 292 292 292 292
303 302 301 302 300 302 302 302 301 300 302 301 300 301 301 302 302 301 301 302 301 300 297 298 299 298 299 299 300 299 297 296 296 295 295 294 294 293 292 293 293 293 292 292
303 301 301 301 302 301 300 301 299 299 302 301 300 302 303 302 302 301 303 300 299 298 298 297 298 299 298 298 298 298 298 299 297 297 296 295 294 293 293 292 293 293 293 292
Wind_Speed
14 17 17 17 19 23 20 11 3 10 10 3 6 11 13 12 16 21 14 4 3 4 13 29 11 3 5 15 20 21 21 21 21 19 18 16 17 15 16 11 13 8 9 8
13 17 19 20 18 19 22 19 11 12 15 7 8 13 15 11 11 13 10 6 5 13 12 5 11 10 2 7 18 20 21 21 19 19 19 18 16 15 15 13 14 14 12 11
5 10 16 16 14 16 20 19 11 10 5 10 11 14 16 14 10 13 12 17 4 3 9 8 7 9 3 10 18 19 20 20 20 20 19 19 17 16 15 17 12 14 16 14
4 4 6 7 16 17 19 20 16 12 9 13 14 14 10 18 8 14 15 19 15 8 9 8 7 5 7 5 14 20 18 19 19 19 20 18 18 18 16 15 17 15 13 14
4 5 9 12 5 11 11 8 17 19 18 17 15 10 10 28 26 4 5 13 17 15 8 3 4 4 6 3 11 8 15 19 19 19 19 18 19 18 16 15 15 16 14 14
2 4 6 6 7 11 8 3 18 17 14 16 15 7 7 23 23 10 13 15 12 19 12 14 10 7 6 1 1 12 15 16 17 19 19 20 20 19 17 15 15 12 15 15
7 6 5 15 14 4 7 6 15 15 11 12 8 3 15 17 20 15 11 11 11 12 11 12 13 10 6 4 8 18 11 13 15 18 19 19 17 16 16 15 14 14 15 14
5 6 6 20 11 8 8 14 13 12 13 10 6 13 15 15 20 15 14 16 14 12 11 12 14 14 14 10 12 12 10 10 14 16 15 14 18 16 16 15 15 15 14 13
3 6 11 10 11 11 13 13 15 16 15 14 7 6 12 14 13 12 10 10 11 11 13 12 12 11 12 14 13 15 13 12 11 14 16 16 17 16 13 14 13 13 12 12
5 3 13 14 10 13 16 15 17 17 18 18 15 5 7 9 11 10 7 8 7 8 10 10 11 11 12 13 14 14 15 11 13 13 13 14 13 13 13 13 13 13 13 12
6 9 15 3 14 15 16 17 18 17 21 24 16 8 7 5 8 6 6 8 6 7 8 10 11 11 12 13 13 13 15 10 13 11 12 12 12 13 13 14 14 13 12 12
4 6 8 11 12 16 15 16 17 22 26 14 13 10 7 5 4 3 7 7 8 8 10 12 12 12 12 13 12 13 13 7 5 7 8 10 10 5 7 8 15 16 15 13
4 4 6 10 12 12 13 14 16 21 18 5 7 6 4 3 4 6 4 8 10 8 9 10 11 11 12 13 14 13 10 11 6 5 2 8 8 10 8 3 5 2 12 17
7 7 7 5 7 11 10 11 10 13 13 10 6 7 7 6 5 5 7 6 7 8 9 10 10 11 14 13 12 12 12 10 7 5 4 4 6 8 8 8 10 4 1 2
9 7 7 7 6 8 7 9 9 10 14 15 11 8 7 6 5 5 6 8 7 7 9 9 10 12 13 13 11 11 9 7 7 5 4 3 3 6 8 8 9 7 4 4
7 10 9 8 7 4 7 10 9 10 10 12 12 12 8 6 7 7 8 10 10 10 11 11 11 12 12 12 12 8 9 15 7 6 5 6 4 2 4 3 4 2 5 4
5 2 5 5 4 1 6 7 8 9 9 10 12 12 10 8 9 9 9 10 8 8 9 11 12 13 12 12 13 5 6 9 12 7 5 8 6 8 6 7 9 7 7 5
3 5 2 7 2 2 4 5 5 7 9 11 11 11 12 12 11 10 10 7 7 8 10 11 11 11 11 12 10 8 7 9 9 7 8 9 10 10 9 7 10 10 8 13
5 4 5 6 2 1 5 4 2 3 5 8 9 10 9 10 8 10 10 8 8 9 10 9 16 11 10 15 10 7 9 9 9 10 8 11 11 10 9 9 7 9 10 9
6 2 7 3 5 2 2 6 4 3 3 4 5 7 8 9 10 8 9 10 10 6 8 11 8 10 11 14 16 9 9 11 9 9 10 9 8 9 12 13 10 10 12 11
10 6 4 4 3 3 1 5 6 2 3 2 6 6 5 3 6 9 7 10 13 10 5 11 11 8 8 11 12 11 10 10 10 9 9 9 9 11 9 9 8 7 16 8
6 8 6 5 7 2 4 4 5 5 3 4 5 3 2 3 3 4 5 4 2 10 6 6 6 16 13 16 10 11 12 12 10 10 10 9 9 9 9 10 9 9 9 10
3 5 5 7 6 3 6 4 3 4 3 2 2 1 1 3 1 2 4 4 3 2 1 4 7 14 19 11 10 10 13 13 13 12 11 11 10 11 11 11 10 11 9 8
7 8 1 6 3 11 7 4 3 4 1 2 3 3 2 3 3 3 5 7 9 3 6 6 5 3 10 9 9 8 9 12 11 10 10 13 10 10 10 10 10 8 7 9
2 5 2 5 2 8 8 7 6 1 3 2 3 4 3 3 1 4 4 3 6 4 6 5 6 7 6 8 7 8 10 9 8 8 9 9 9 9 9 9 8 9 9 9
5 5 7 7 2 10 8 8 4 5 1 4 3 4 4 3 5 5 4 4 5 4 3 5 6 8 8 6 6 8 7 7 8 8 8 8 7 7 7 7 7 7 7 7
5 7 8 8 4 5 6 7 4 6 5 5 2 4 5 3 4 5 9 5 5 4 4 4 5 8 8 9 10 11 6 5 7 7 6 6 5 4 4 4 5 4 4 4
Wind_Direction
296 295 304 299 302 306 306 292 250 286 292 326 2 357 356 15 17 20 69 60 354 235 244 183 155 123 56 211 190 182 187 189 193 193 196 193 200 199 205 200 202 186 187 185
298 298 297 284 279 287 291 290 296 299 295 318 10 10 359 357 10 11 5 39 168 253 216 242 195 144 346 272 209 186 187 193 192 189 194 198 194 195 198 204 205 205 206 202
276 311 312 287 269 279 280 285 281 288 322 357 8 16 349 341 10 353 349 333 54 333 168 193 197 123 287 262 244 194 193 192 192 192 192 196 194 196 193 202 203 201 205 205
286 290 274 266 322 290 283 288 318 291 13 20 15 352 352 344 340 315 355 1 1 15 36 43 178 211 182 266 296 192 190 192 193 193 194 191 192 196 199 195 206 213 206 207
184 219 268 288 301 16 3 320 29 32 25 5 352 358 29 349 338 170 34 6 349 343 352 33 26 83 114 7 253 280 185 191 190 191 191 189 195 196 197 198 201 209 213 210
333 254 255 62 332 313 340 257 8 20 29 9 351 41 345 337 341 336 308 309 3 341 4 38 39 2 2 326 353 303 225 188 187 187 189 191 193 194 196 202 204 202 212 214
221 240 283 344 327 292 277 337 345 354 4 13 10 335 301 331 332 355 16 3 2 358 15 23 14 5 63 350 242 263 206 191 184 185 190 190 189 193 194 199 203 209 213 217
302 218 259 4 14 9 326 316 320 331 332 341 1 324 324 335 334 351 353 352 352 356 6 18 16 1 353 6 338 320 264 190 190 187 190 185 186 188 195 195 201 207 212 218
269 295 6 2 318 343 352 333 319 321 319 309 305 308 315 322 329 336 351 342 347 354 2 6 8 358 341 339 337 329 323 225 187 187 191 187 186 185 190 195 201 207 211 214
303 28 334 324 351 341 329 318 304 297 310 298 291 279 295 300 313 328 329 330 347 357 1 352 349 352 339 336 335 332 312 253 199 190 184 189 185 187 188 196 202 206 210 215
256 276 310 239 332 327 321 317 308 299 298 279 258 249 249 281 296 320 344 339 348 2 358 347 341 341 339 333 338 334 315 234 198 193 188 190 185 187 195 205 201 203 209 213
261 315 303 300 312 325 314 312 310 324 300 233 221 237 212 235 288 56 6 347 5 9 353 345 335 333 332 332 338 338 329 332 209 182 181 190 193 170 34 225 197 199 201 208
246 234 258 298 308 303 312 321 328 326 332 226 228 232 195 204 67 69 33 354 14 6 354 334 332 335 331 333 344 344 339 332 319 14 206 190 194 205 203 46 65 86 224 212
219 266 256 303 323 317 331 330 327 326 341 1 20 77 76 74 57 54 37 15 8 355 353 335 338 339 329 337 346 343 338 329 340 3 356 346 212 201 203 193 200 182 92 339
214 218 249 260 285 324 330 329 349 356 358 5 355 27 55 63 54 38 20 14 10 15 355 345 346 340 341 339 343 336 335 332 342 329 333 10 307 225 202 182 191 170 106 66
194 226 211 254 283 348 357 355 1 7 10 357 5 15 20 30 46 37 30 24 33 14 349 351 353 342 339 340 333 329 327 318 305 329 320 32 355 42 216 139 108 75 136 171
140 310 313 285 327 46 30 10 14 10 4 16 13 11 15 33 39 29 28 28 33 16 357 357 353 344 349 338 329 321 328 351 358 4 349 43 22 51 43 90 89 69 78 77
193 165 233 293 339 32 99 59 49 48 20 21 19 22 23 26 30 25 16 17 29 24 13 6 360 358 354 345 2 1 12 21 13 17 24 27 45 49 60 56 68 79 50 53
219 124 243 275 128 6 156 132 72 72 49 39 33 32 19 11 28 33 10 4 9 10 10 6 14 17 9 15 17 16 33 32 23 28 27 28 45 49 44 43 55 69 65 52
142 195 290 91 194 241 126 159 145 87 67 69 46 46 41 31 21 28 20 12 7 358 339 9 8 33 33 34 40 36 43 44 31 38 32 37 41 48 53 40 25 46 59 65
173 184 230 245 130 183 300 80 141 114 175 90 61 53 12 72 41 13 43 29 357 346 4 8 40 32 46 50 51 50 44 51 52 44 46 39 41 50 59 77 54 45 53 46
97 196 196 255 133 233 147 82 113 116 99 160 149 174 25 5 46 67 317 151 221 2 1 8 26 58 53 56 56 60 61 53 55 63 64 58 61 67 59 59 59 57 55 59
161 14 185 137 170 118 128 104 42 126 126 126 141 244 160 126 24 64 305 286 145 155 275 290 71 63 63 51 55 57 63 58 49 43 45 47 50 59 61 62 53 56 55 63
142 206 65 155 185 121 135 169 145 294 107 117 192 240 281 3 318 256 209 288 292 282 204 201 248 31 69 71 54 45 71 72 65 62 62 58 54 54 55 60 67 61 63 59
214 122 65 297 261 105 166 156 140 126 306 12 298 331 120 302 201 280 310 147 289 321 12 18 75 138 110 91 93 76 71 61 67 76 75 69 65 66 67 68 68 67 62 62
51 1 339 270 4 145 168 145 153 138 184 250 316 321 342 336 359 352 330 77 166 95 51 47 48 54 65 74 104 101 94 90 82 76 75 66 70 71 67 72 74 74 74 71
5 58 37 321 355 93 90 111 122 138 193 137 57 19 336 333 311 314 352 18 74 79 39 44 53 66 72 62 53 45 80 125 114 103 89 88 80 69 66 69 70 76 75 82